Weather History for Alexander City, AL

Change the Weather History Date:

Tuesday, April 30, 2013

  Actual Average (KAUO) Record (KAUO)
Temperature  
Mean Temperature 69 °F -  
Max Temperature 83 °F - 88 °F (1970)
Min Temperature 55 °F - 37 °F (1988)
Degree Days  
Heating Degree Days 0    
Month to date heating degree days  
Since 1 July heating degree days  
Cooling Degree Days 4    
Month to date cooling degree days  
Year to date cooling degree days  
Growing Degree Days 19 (Base 50)    
Moisture  
Dew Point 58 °F    
Average Humidity 69    
Maximum Humidity 89    
Minimum Humidity 38    
Precipitation  
Precipitation 0.00 in - 2.89 in (2002)
Month to date precipitation  
Year to date precipitation  
Sea Level Pressure  
Sea Level Pressure 30.00 in    
Wind  
Wind Speed 1 mph (SE)    
Max Wind Speed 8 mph    
Max Gust Speed -    
Visibility 9 miles    
Events      
T = Trace of Precipitation, MM = Missing Value Source: NWS Daily Summary

Daily Weather History Graph

Daily Weather History Graph

Search for Another Location

Airport:

Trip Planner

Search our weather history database for the weather conditions in past years. The results will help you decide how hot, cold, wet, or windy it might be!

Date:

Astronomy

Apr. 30, 2013 Rise Set
Actual Time 5:57 AM CDT 7:25 PM CDT
Civil Twilight 5:30 AM CDT 7:51 PM CDT
Nautical Twilight 4:59 AM CDT 8:23 PM CDT
Astronomical Twilight 4:26 AM CDT 8:56 PM CDT
Moon No Moon Rise 10:28 AM CDT (4/30)
Length of Visible Light 14h 20m
Length of Day
13h 28m
Waning Gibbous, 70% of the Moon is Illuminated
Apr 30
Waning Gibbous
May 2
Last Quarter
May 9
New
May 17
First Quarter
May 24
Full

Hourly Weather History & Observations

Time (CDT) Temp. Heat Index Dew Point Humidity Pressure Visibility Wind Dir Wind Speed Gust Speed Precip Events Conditions
12:15 AM 57.7 °F - 54.1 °F 88% 29.97 in 10.0 mi Calm Calm - N/A   Clear
12:35 AM 57.7 °F - 54.1 °F 88% 29.98 in 7.0 mi Calm Calm - N/A   Clear
12:55 AM 57.7 °F - 54.5 °F 89% 29.97 in 10.0 mi Calm Calm - N/A   Clear
1:15 AM 57.7 °F - 54.3 °F 88% 29.96 in 7.0 mi Calm Calm - N/A   Clear
1:35 AM 57.7 °F - 54.5 °F 89% 29.96 in 7.0 mi Calm Calm - N/A   Clear
1:55 AM 55.6 °F - 52.2 °F 88% 29.96 in 7.0 mi Calm Calm - N/A   Clear
2:15 AM 55.4 °F - 51.8 °F 88% 29.96 in 7.0 mi Calm Calm - N/A   Clear
2:35 AM 55.4 °F - 52.0 °F 88% 29.96 in 5.0 mi Calm Calm - N/A   Clear
2:55 AM 57.7 °F - 54.5 °F 89% 29.96 in 7.0 mi NE 3.5 mph - N/A   Clear
3:15 AM 57.7 °F - 54.1 °F 88% 29.97 in 7.0 mi NNE 3.5 mph - N/A   Clear
3:35 AM 57.7 °F - 54.1 °F 88% 29.97 in 7.0 mi Calm Calm - N/A   Clear
3:55 AM 57.7 °F - 54.3 °F 88% 29.98 in 5.0 mi Calm Calm - N/A   Clear
4:15 AM 55.6 °F - 52.3 °F 89% 29.98 in 7.0 mi Calm Calm - N/A   Clear
4:35 AM 55.4 °F - 51.8 °F 88% 29.98 in 7.0 mi Calm Calm - N/A   Clear
4:55 AM 55.4 °F - 51.8 °F 88% 29.98 in 7.0 mi Calm Calm - N/A   Clear
5:15 AM 55.4 °F - 51.8 °F 88% 29.98 in 7.0 mi Calm Calm - N/A   Clear
5:35 AM 55.4 °F - 51.8 °F 88% 29.99 in 7.0 mi Calm Calm - N/A   Clear
5:55 AM 55.4 °F - 51.8 °F 88% 29.99 in 5.0 mi Calm Calm - N/A   Clear
6:15 AM 55.4 °F - 52.2 °F 89% 30.00 in 5.0 mi Calm Calm - N/A   Clear
6:35 AM 55.4 °F - 51.8 °F 88% 30.01 in 5.0 mi Calm Calm - N/A   Clear
6:55 AM 57.7 °F - 54.5 °F 89% 30.01 in 7.0 mi Calm Calm - N/A   Clear
7:15 AM 58.5 °F - 54.0 °F 85% 30.02 in 10.0 mi Calm Calm - N/A   Clear
7:35 AM 60.3 °F - 54.9 °F 82% 30.02 in 10.0 mi Calm Calm - N/A   Clear
7:55 AM 61.9 °F - 55.9 °F 81% 30.03 in 10.0 mi East 3.5 mph - N/A   Clear
8:15 AM 62.8 °F - 57.6 °F 83% 30.02 in 10.0 mi Calm Calm - N/A   Clear
8:35 AM 65.5 °F - 59.4 °F 81% 30.02 in 10.0 mi Calm Calm - N/A   Clear
8:55 AM 69.4 °F - 62.4 °F 78% 30.03 in 10.0 mi Calm Calm - N/A   Clear
9:15 AM 70.7 °F - 62.8 °F 76% 30.03 in 10.0 mi Calm Calm - N/A   Clear
9:35 AM 73.9 °F - 64.0 °F 71% 30.03 in 10.0 mi Calm Calm - N/A   Clear
9:55 AM 75.6 °F - 62.8 °F 64% 30.03 in 10.0 mi Calm Calm - N/A   Clear
10:15 AM 75.6 °F - 61.7 °F 62% 30.03 in 10.0 mi East 5.8 mph - N/A   Clear
10:35 AM 77.2 °F - 61.7 °F 59% 30.03 in 7.0 mi Calm Calm - N/A   Clear
10:55 AM 78.1 °F - 61.2 °F 56% 30.03 in 10.0 mi SSE 3.5 mph - N/A   Clear
11:15 AM 79.0 °F - 59.9 °F 52% 30.04 in 10.0 mi South 4.6 mph - N/A   Clear
11:35 AM 80.6 °F 81.4 °F 60.6 °F 50% 30.03 in 10.0 mi SE 6.9 mph - N/A   Clear
11:55 AM 80.6 °F 80.3 °F 53.8 °F 39% 30.03 in 10.0 mi ENE 3.5 mph - N/A   Clear
12:15 PM 78.8 °F - 58.5 °F 50% 30.02 in 10.0 mi South 4.6 mph - N/A   Clear
12:35 PM 78.1 °F - 60.4 °F 54% 30.02 in 10.0 mi South 3.5 mph - N/A   Scattered Clouds
12:55 PM 80.6 °F 81.4 °F 60.3 °F 50% 30.01 in 10.0 mi SSW 4.6 mph - N/A   Scattered Clouds
1:15 PM 80.6 °F 81.2 °F 59.9 °F 49% 30.01 in 10.0 mi SE 3.5 mph - N/A   Scattered Clouds
1:35 PM 81.9 °F 81.7 °F 57.4 °F 43% 30.01 in 10.0 mi SW 3.5 mph - N/A   Clear
1:55 PM 81.7 °F 81.2 °F 55.2 °F 40% 30.00 in 10.0 mi Calm Calm - N/A   Clear
2:15 PM 81.7 °F 81.2 °F 55.2 °F 40% 30.00 in 10.0 mi Calm Calm - N/A   Clear
2:35 PM 83.3 °F 82.6 °F 56.5 °F 40% 29.99 in 10.0 mi SSE 4.6 mph - N/A   Scattered Clouds
2:55 PM 83.1 °F 82.2 °F 55.4 °F 38% 29.99 in 10.0 mi South 5.8 mph - N/A   Clear
3:15 PM 83.1 °F 82.3 °F 55.9 °F 39% 29.98 in 10.0 mi ESE 8.1 mph - N/A   Clear
3:35 PM 82.0 °F 81.4 °F 54.9 °F 39% 29.98 in 10.0 mi SSE 3.5 mph - N/A   Clear
3:55 PM 83.3 °F 82.3 °F 54.9 °F 38% 29.98 in 10.0 mi SE 6.9 mph - N/A   Clear
4:15 PM 83.3 °F 82.3 °F 54.9 °F 38% 29.98 in 10.0 mi South 5.8 mph - N/A   Clear
4:35 PM 82.0 °F 81.5 °F 55.6 °F 40% 29.98 in 10.0 mi South 5.8 mph - N/A   Clear
4:55 PM 81.9 °F 81.4 °F 56.1 °F 41% 29.98 in 10.0 mi Calm Calm - N/A   Clear
5:15 PM 81.3 °F 81.1 °F 56.1 °F 42% 29.98 in 10.0 mi SSE 4.6 mph - N/A   Clear
5:35 PM 80.8 °F 80.9 °F 56.8 °F 44% 29.97 in 10.0 mi ESE 3.5 mph - N/A   Clear
5:55 PM 80.6 °F 80.9 °F 58.1 °F 46% 29.97 in 10.0 mi Calm Calm - N/A   Clear
6:15 PM 80.6 °F 81.1 °F 59.2 °F 48% 29.97 in 10.0 mi Calm Calm - N/A   Clear
6:35 PM 78.1 °F - 59.4 °F 52% 29.98 in 10.0 mi Calm Calm - N/A   Clear
6:55 PM 75.6 °F - 65.8 °F 72% 29.98 in 10.0 mi Calm Calm - N/A   Clear
7:15 PM 75.6 °F - 67.5 °F 76% 29.99 in 10.0 mi Calm Calm - N/A   Clear
7:35 PM 73.2 °F - 66.2 °F 79% 30.00 in 10.0 mi Calm Calm - N/A   Clear
7:55 PM 71.8 °F - 65.7 °F 81% 30.00 in 10.0 mi Calm Calm - N/A   Clear
8:15 PM 70.7 °F - 63.3 °F 77% 30.01 in 10.0 mi Calm Calm - N/A   Clear
8:35 PM 70.7 °F - 63.9 °F 79% 30.01 in 10.0 mi Calm Calm - N/A   Clear
9:15 PM 70.7 °F - 64.6 °F 81% 30.02 in 10.0 mi Calm Calm - N/A   Clear
9:35 PM 70.7 °F - 64.4 °F 80% 30.03 in 10.0 mi Calm Calm - N/A   Clear
9:55 PM 70.7 °F - 64.4 °F 80% 30.04 in 10.0 mi Calm Calm - N/A   Clear
10:15 PM 70.7 °F - 64.4 °F 80% 30.04 in 10.0 mi Calm Calm - N/A   Clear
10:35 PM 70.7 °F - 64.4 °F 80% 30.04 in 10.0 mi Calm Calm - N/A   Clear
11:15 PM 69.4 °F - 64.4 °F 84% 30.05 in 10.0 mi Calm Calm - N/A   Clear
11:35 PM 70.7 °F - 64.6 °F 81% 30.05 in 10.0 mi Calm Calm - N/A   Clear
11:55 PM 70.7 °F - 63.5 °F 78% 30.06 in 10.0 mi East 3.5 mph - N/A   Scattered Clouds